Regional Weather Roundup
Issued by NWS

Home | Current Version | Previous Version | Text Only | Print | Product List | Glossary Off
Versions: 1 2 3 4 5 6 7 8 9 10 11 12 13 14 15 16 17 18 19 20 21 22 23 24 25 26 27 28 29 30 31 32 33 34 35 36 37 38 39 40 41 42 43 44 45 46 47 48 49 50

151
ASUS44 KMEG 042300
RWRTN
TENNESSEE HOURLY STATE WEATHER ROUNDUP
NATIONAL WEATHER SERVICE MEMPHIS TN
600 PM CDT WED MAY 04 2016

TNZ002-004-019-021-049-052-054-088>092-050000-
WEST TENNESSEE

CITY           SKY/WX    TMP DP  RH WIND       PRES   REMARKS
MEMPHIS INTL   MOSUNNY   76  42  29 NW14G24   29.78R
NWS MEMPHIS      N/A     75 N/A N/A MISG        N/A
JACKSON        SUNNY     71  44  37 N16       29.77R
DYERSBURG      SUNNY     72  45  37 N16       29.78R
UNION CITY     SUNNY     70  43  37 N14       29.78R
LEXINGTON      MOSUNNY   70  46  43 N10       29.75R
$$

TNZ008-025-027-028-033-062-065-066-050000-
NORTH MIDDLE TENNESSEE

CITY           SKY/WX    TMP DP  RH WIND       PRES   REMARKS
NASHVILLE      PTSUNNY   60  48  64 NW6       29.75S
CLARKSVILLE    MOSUNNY   65  43  44 N15       29.75R
COOKEVILLE     PTSUNNY   57  52  82 NW8       29.72R
CROSSVILLE     MOSUNNY   56  49  77 W6        29.71F
$$

TNZ061-075-076-078-094-096-097-050000-
SOUTH MIDDLE TENNESSEE

CITY           SKY/WX    TMP DP  RH WIND       PRES   REMARKS
TULLAHOMA      MOSUNNY   59  57  94 W5        29.74S
WINCHESTER     MOSUNNY   57  54  88 CALM      29.74F
MCMINNVILLE    MOSUNNY   59  55  88 SW3       29.72F
COLUMBIA       PTSUNNY   66  52  59 N9        29.73R
SHELBYVILLE    SUNNY     64  57  77 NW8       29.73F
$$

TNZ017-018-042-046-047-050000-
NORTHEAST TENNESSEE

CITY           SKY/WX    TMP DP  RH WIND       PRES   REMARKS
TRI CITIES     CLOUDY    61  39  44 W9        29.68R
$$

TNZ012-013-036-069-073-074-050000-
CENTRAL EAST TENNESSEE

CITY           SKY/WX    TMP DP  RH WIND       PRES   REMARKS
KNOXVILLE      LGT RAIN  55  49  80 S7        29.72S
OAK RIDGE      CLOUDY    56  51  84 S6        29.72F
GATLINBURG     CLOUDY    54  46  76 NW5       29.73R
$$

TNZ083-085-099-050000-
SOUTHEAST TENNESSEE

CITY           SKY/WX    TMP DP  RH WIND       PRES   REMARKS
CHATTANOOGA    RAIN      56  52  86 NW3       29.75R
$$

SKY/WX REPORTED AS FAIR MEANS FEW OR NO CLOUDS BELOW
12 THOUSAND FEET.





USA.gov is the U.S. government's official web portal to all federal, state and local government web resources and services.